Printer-friendly version

IAU Minor Planet Center

Minor Planet Center

MPEC 2006-X14 : 2006 XA

The following Minor Planet Electronic Circular may be linked-to from your own Web pages, but must not otherwise be redistributed electronically.


Read MPEC 2006-X13 Read MPEC 2006-X15


M.P.E.C. 2006-X14                                Issued 2006 Dec. 4, 13:28 UT

     The Minor Planet Electronic Circulars contain information on unusual
         minor planets and routine data on comets.  They are published
   on behalf of Commission 20 of the International Astronomical Union by the
          Minor Planet Center, Smithsonian Astrophysical Observatory,
                          Cambridge, MA 02138, U.S.A.

             Prepared using the Tamkin Foundation Computer Network

                              MPC@CFA.HARVARD.EDU
          URL http://cfa-www.harvard.edu/iau/mpc.html  ISSN 1523-6714

                                    2006 XA

Observations:
     K06X00A* C2006 12 01.42571 09 49 27.12 +03 24 02.7          19.1 V EX014703
     K06X00A  C2006 12 01.43365 09 49 28.30 +03 23 48.9          19.9 V EX014703
     K06X00A  C2006 12 01.44145 09 49 29.46 +03 23 37.3          19.5 V EX014703
     K06X00A  C2006 12 01.44918 09 49 30.61 +03 23 24.1          18.9 V EX014703
     K06X00A  C2006 12 01.45688 09 49 31.83 +03 23 11.1          19.1 V EX014703
     K06X00A  C2006 12 01.46443 09 49 32.98 +03 22 59.0          19.5 V EX014703
     K06X00A  C2006 12 01.47233 09 49 34.17 +03 22 45.7          19.3 V EX014703
     K06X00A  C2006 12 01.48007 09 49 35.36 +03 22 33.3          19.4 V EX014703
     K06X00A  C2006 12 02.36852809 51 53.12 +02 57 53.1          19.8   EX014H55
     K06X00A  C2006 12 02.37895709 51 54.75 +02 57 35.1          19.8   EX014H55
     K06X00A  C2006 12 02.38551909 51 55.75 +02 57 23.7          20.0   EX014H55
     K06X00A  C2006 12 03.34215 09 54 25.49 +02 30 23.4          18.6 R EX014448
     K06X00A  C2006 12 03.35097 09 54 26.81 +02 30 09.1          19.1 R EX014448
     K06X00A  C2006 12 03.35959 09 54 28.46 +02 29 51.6          20.4 R EX014448
     K06X00A dC2006 12 04.46979 09 57 22.77 +01 57 55.4          19.6 R EX014H36
     K06X00A dC2006 12 04.48386 09 57 25.13 +01 57 29.6          19.8 R EX014H36

Observer details:
448 Desert Moon Observatory.  Observer B. L. Stevens.  0.3-m
    Schmidt-Cassegrain + CCD.
703 Catalina Sky Survey.  Observer R. A. Kowalski.  Measurers E. C. Beshore,
    E. J. Christensen, G. J. Garradd, A. R. Gibbs, A. D. Grauer, R. E. Hill,
    R. A. Kowalski, S. M. Larson, R. H. McNaught.  0.68-m Schmidt + CCD.
H36 Sandlot Observatory, Scranton.  Observer G. Hug.  0.30-m
    Schmidt-Cassegrain + CCD.
H55 Astronomical Research Observatory, Charleston.  Observer R. Holmes.
    0.81-m f/4.0 astrograph + CCD.

Orbital elements:
2006 XA                                                  Earth MOID = 0.0871 AU
Epoch 2006 Nov. 21.0 TT = JDT 2454060.5                 MPC
M 326.54597              (2000.0)            P               Q
n   0.32002812     Peri.  301.38035     -0.95750346     +0.23398993
a   2.1167876      Node   252.61301     -0.16553166     -0.92460855
e   0.5311875      Incl.   10.17779     -0.23619142     -0.30057901
P   3.08           H   17.2           G   0.15
From 15 observations 2006 Dec. 1-4.

Ephemeris:
2006 XA                  a,e,i = 2.12, 0.53, 10                  q = 0.9924
Date    TT    R. A. (2000) Decl.     Delta      r     Elong.  Phase     V
2006 12 01    09 48.35   +03 35.8    0.935    1.476   100.4    41.1    19.5
2006 12 11    10 15.21   -01 23.9    0.812    1.402   102.2    43.3    19.2
2006 12 21    10 45.32   -07 22.9    0.703    1.330   102.8    46.2    18.8
2006 12 31    11 20.33   -14 24.5    0.613    1.260   101.8    49.8    18.5
2007 01 10    12 02.69   -22 18.0    0.543    1.194    98.8    54.5    18.2
2007 01 20    12 55.24   -30 23.0    0.496    1.134    94.1    60.0    18.1
2007 01 30    13 59.86   -37 21.6    0.473    1.081    88.4    65.6    18.1
2007 02 09    15 14.22   -41 45.4    0.472    1.039    82.8    70.4    18.1
2007 02 19    16 29.68   -42 52.1    0.488    1.009    78.2    73.5    18.2
2007 03 01    17 36.67   -41 11.6    0.516    0.994    75.3    74.6    18.4
2007 03 11    18 31.35   -37 49.4    0.550    0.995    74.1    73.8    18.5
2007 03 21    19 14.66   -33 40.6    0.586    1.011    74.5    71.6    18.6
2007 03 31    19 48.84   -29 18.6    0.619    1.042    76.2    68.6    18.7
2007 04 10    20 15.90   -25 00.5    0.648    1.085    79.1    65.0    18.7
2007 04 20    20 37.07   -20 55.1    0.669    1.139    83.2    61.1    18.8
2007 04 30    20 52.98   -17 07.0    0.683    1.200    88.3    57.0    18.8
2007 05 10    21 03.94   -13 38.3    0.690    1.266    94.5    52.6    18.8
2007 05 20    21 09.88   -10 31.5    0.691    1.337   101.8    47.8    18.8
2007 05 30    21 10.62   -07 49.4    0.689    1.409   110.2    42.4    18.8
2007 06 09    21 06.08   -05 35.4    0.688    1.483   119.9    36.4    18.7
2007 06 19    20 56.42   -03 54.6    0.691    1.557   130.6    29.7    18.7
2007 06 29    20 42.52   -02 51.2    0.705    1.631   141.9    22.6    18.6
2007 07 09    20 26.09   -02 26.7    0.735    1.704   152.9    15.8    18.5
2007 07 19    20 09.30   -02 38.0    0.784    1.776   161.2    10.7    18.6
2007 07 29    19 54.43   -03 16.3    0.854    1.847   162.0     9.8    18.8
2007 08 08    19 42.97   -04 10.8    0.946    1.916   155.5    12.7    19.2
2007 08 18    19 35.59   -05 11.6    1.059    1.983   146.5    16.4    19.7
2007 08 28    19 32.27   -06 11.1    1.189    2.049   137.2    19.6    20.1
2007 09 07    19 32.59   -07 04.3    1.334    2.113   128.4    22.0    20.5
2007 09 17    19 35.98   -07 48.9    1.491    2.175   119.9    23.6    20.9
2007 09 27    19 41.92   -08 23.1    1.658    2.235   111.9    24.6    21.2
2007 10 07    19 49.88   -08 46.6    1.833    2.293   104.2    25.0    21.5
2007 10 17    19 59.46   -08 59.3    2.012    2.349    96.8    24.9    21.7
2007 10 27    20 10.31   -09 01.2    2.194    2.404    89.7    24.4    21.9

Timothy B. Spahr             (C) Copyright 2006 MPC           M.P.E.C. 2006-X14

Read MPEC 2006-X13 Read MPEC 2006-X15


Our Web policy. Index to the CBAT/MPC/ICQ pages.


Valid HTML 4.01!